Regional Weather Roundup
Issued by NWS Albany, NY

Home | Current Version | Previous Version | Graphics & Text | Print | Product List | Glossary On
Versions: 1 2 3 4 5 6 7 8 9 10 11 12 13 14 15 16 17 18 19 20 21 22 23 24 25 26 27 28 29 30 31 32 33 34 35 36 37 38 39 40 41 42 43 44 45 46 47 48 49 50
000
ASUS41 KALY 171710
RWRALY

NEW YORK STATE HOURLY WEATHER ROUNDUP
NATIONAL WEATHER SERVICE ALBANY NY
1200 PM EST WED DEC 17 2014

NOTE: "FAIR" INDICATES FEW OR NO CLOUDS BELOW 12,000 FEET WITH NO
SIGNIFICANT WEATHER AND/OR NO OBSTRUCTIONS TO VISIBILITY.

NYZ032-033-038>043-046>054-057>066-NYZ062>081-171800-
EAST


CITY           SKY/WX    TMP DP  RH WIND       PRES   REMARKS
ALBANY         CLOUDY    39  37  92 CALM      29.80F FOG
GLENS FALLS    FOG       37  36  96 CALM      29.77F VSB 1
POUGHKEEPSIE   CLOUDY    48  43  82 CALM      29.79F
NEWBURGH       PTSUNNY   48  43  81 NW18G25   29.81F
MONTGOMERY     PTSUNNY   50  39  66 W14       29.79F
WHITE PLAINS   MOSUNNY   50  39  66 NW14G22   29.79F
ISLIP          MOSUNNY   53  42  66 W13G21    29.78F
NEW YORK CITY  PTSUNNY   52  39  61 NW15      29.81F
CENTRAL PARK   PTSUNNY   52  38  58 VRB7      29.84F
$$

NYZ005>009-017-018-044>046-055-056-171800-
CENTRAL


CITY           SKY/WX    TMP DP  RH WIND       PRES   REMARKS
FULTON         LGT RAIN  39  34  82 W13       29.83F WCI  31
SYRACUSE       LGT RAIN  39  35  86 W18G26    29.84S WCI  30
ROME           LGT RAIN  40  37  89 W12       29.83F WCI  33
ELMIRA         CLOUDY    41  35  79 W12       29.86F
BINGHAMTON     LGT RAIN  36  34  92 W17       29.82S WCI  26
MONTICELLO     CLOUDY    41  39  93 W12       29.81F
$$

NYZ026>034-041>043-171800-
NORTH


CITY           SKY/WX    TMP DP  RH WIND       PRES   REMARKS
WATERTOWN      LGT RAIN  41  35  79 W10       29.79F
FORT DRUM      NOT AVBL
MASSENA        CLOUDY    35  34  96 E5        29.76F FOG     WCI  31
SARANAC LAKE   CLOUDY    35  34  96 CALM      29.71F FOG
PLATTSBURGH    FOG       38  37  97 CALM      29.75F VSB 1
$$

NYZ001>004-010>016-019>021-171800-
WEST


CITY           SKY/WX    TMP DP  RH WIND       PRES   REMARKS
NIAGARA FALLS  LGT SNOW  34  32  92 SW15G25   29.90S FOG     WCI  24
BUFFALO        LGT SNOW  34  31  88 W22G29    29.90F FOG     WCI  22
DUNKIRK        FLURRIES  35  32  88 W20G33    29.96S WCI  24
JAMESTOWN      CLOUDY    30  28  93 W9        29.93S VSB 3/4 WCI  22
WELLSVILLE     CLOUDY    35  30  82 W16G25    29.86S WCI  25
ROCHESTER      CLOUDY    38  32  79 W20G31    29.86S WCI  28
PENN YAN       CLOUDY    40  30  67 W16G28    29.85S WCI  31
$$

             KEY
       WCI = WIND CHILL INDEX
       VSB = VISIBILITY
       HX  = HEAT INDEX
$$



USA.gov is the U.S. government's official web portal to all federal, state and local government web resources and services.